Погода в Плоешти

Румыния     44°56′17″N   26°02′21″E
темп.,
°C
ветер,
м/с
пор.,
м/с
влажн.,
%
обл.,
%
осадки,
мм/ч
давл.,
гПа
погр.,
м
21 апреля, ср
ср2100:00+8ссв0088100 0.1 101413
03:00+7сз229048 0.1 101422
06:00+6сз1285100 0.0 101422
09:00+10зюз116958 0.0 1016240
12:00+14ююз22525 0.2 10161313
15:00+16зюз334648 1.4 10151759
18:00+15з4454100 0.8 10151187
21:00+11зсз227199 1.1 101724
22 апреля, чт
чт2200:00+9ссз22755 0.0 101836
03:00+8ссз22755 0.0 101837
06:00+7ссз12760 0.0 101916
09:00+11ссз01610 0.0 1019242
12:00+16юз34510 0.0 10191156
15:00+18юз55425 0.0 10181893
18:00+17юз56466 0.0 10171646
21:00+13зюз2463100 0.0 1018104
23 апреля, пт
пт2300:00+11зсз2367100 0.0 101878
03:00+11з2266100 0.0 101742
06:00+10зсз1169100 0.0 101619
09:00+12зюз3565100 0.0 1017321
12:00+17зюз685035 0.0 10161255
15:00+16сз365190 0.1 10151658
18:00+14всв346195 0.6 1017301
21:00+10ссв245699 0.6 1019112
24 апреля, сб
сб2400:00+10ююв236599 0.0 1021160
03:00+7ююз128355 0.0 102294
06:00+7з128083 0.0 1022112
09:00+9сз126287 0.0 1023471
12:00+13юз335086 0.1 10221785
15:00+12юз235245 0.1 10211004
18:00+14ю324599 0.0 10201611
21:00+11ю115997 0.0 102115
25 апреля, вс
вс2500:00+10всв1160100 0.0 102155
03:00+9в2464100 0.0 1021196
06:00+7св126463 0.0 102094
09:00+9вюв115699 0.0 1021337
12:00+12ююз225164 0.0 1020803
15:00+15з3447100 0.1 10181771
18:00+13ссз3460100 0.5 1018817
21:00+9ссв3579100 1.1 1019178